Date,TemperatureHighF,TemperatureAvgF,TemperatureLowF,DewpointHighF,DewpointAvgF,DewpointLowF,HumidityHigh,HumidityAvg,HumidityLow,PressureMaxIn,PressureMinIn,WindSpeedMaxMPH,WindSpeedAvgMPH,GustSpeedMaxMPH,PrecipitationSumIn
2013-2-1,14,2,-10,10,-6,-18,85,67,47,0.00,40.00,17,8,24,0.00
2013-2-2,27,13,2,25,7,-4,99,80,56,0.00,40.00,25,9,35,0.00
2013-2-3,20,16,8,18,11,3,94,80,68,0.00,40.00,27,9,38,0.00
2013-2-4,22,15,7,19,10,5,93,81,63,0.00,40.00,14,8,19,0.00
2013-2-5,34,23,10,32,20,9,99,89,74,0.00,40.00,21,10,28,0.00
2013-2-6,40,27,7,36,23,5,99,86,69,0.00,40.00,19,7,30,0.00
2013-2-7,33,26,22,32,25,19,99,98,93,0.00,40.00,16,10,21,0.00
2013-2-8,27,25,21,25,22,19,97,89,78,0.00,40.00,17,6,23,0.00
2013-2-9,34,29,25,32,28,25,99,96,90,0.00,40.00,20,12,37,0.00
2013-2-10,36,33,28,36,32,28,99,99,97,0.00,40.00,28,10,36,0.02
2013-2-11,28,23,20,27,20,16,99,88,77,0.00,40.00,32,21,43,0.04
2013-2-12,37,27,19,32,23,16,94,84,70,0.00,40.00,16,9,21,0.01
2013-2-13,44,33,23,37,30,23,98,91,71,0.00,40.00,17,8,26,0.00
2013-2-14,36,28,13,36,24,5,99,87,67,0.00,40.00,24,15,31,0.00
2013-2-15,19,14,9,10,7,3,87,75,55,0.00,40.00,17,11,23,0.00
2013-2-16,27,20,13,19,14,9,90,79,61,0.00,40.00,12,5,18,0.00
2013-2-17,37,28,18,28,22,16,90,78,67,0.00,40.00,21,11,31,0.00
2013-2-18,35,22,3,34,18,-2,99,82,70,0.00,40.00,29,17,44,0.00
2013-2-19,6,0,-5,-2,-7,-11,78,70,64,0.00,40.00,28,19,39,0.00
2013-2-20,18,5,-7,9,-3,-13,83,69,53,0.00,40.00,11,6,17,0.00
2013-2-21,27,16,7,16,9,3,96,74,49,0.00,40.00,14,8,22,0.03
2013-2-22,26,20,10,21,18,9,99,92,75,0.00,40.00,15,9,19,0.09
2013-2-23,24,12,-1,14,8,-6,96,83,65,0.00,40.00,9,4,12,0.01
2013-2-24,28,15,-6,25,10,-9,95,82,66,0.00,40.00,8,2,11,0.00
2013-2-25,32,26,21,27,24,21,99,94,75,0.00,40.00,7,3,9,0.00
2013-2-26,30,25,15,28,24,14,99,93,87,0.00,40.00,20,12,24,0.00
2013-2-27,32,24,20,25,22,19,97,90,73,0.00,40.00,23,15,32,0.00
2013-2-28,29,24,17,27,22,16,96,89,77,0.00,40.00,14,10,19,0.00